EW4547 Weather Reports


time (UTC)temp
F
wind
direction
speed
knots
gust
knots
rain 1hr
in
rain 24hr
in
rain mn
in
humidity
%
barometer
mb
20260510210328 83 296 1.7 6.1 0.00 0.00 0.00 49 1015.2
20260510204847 83 109 2.6 5.2 0.00 0.00 0.00 51 1015.0
20260510203349 83 240 2.6 7.0 0.00 0.00 0.00 49 1015.2
20260510201843 84 330 2.6 6.1 0.00 0.00 0.00 51 1015.1
20260510200347 83 194 1.7 7.8 0.00 0.00 0.00 53 1015.1
20260510194903 83 260 3.5 7.8 0.00 0.00 0.00 52 1015.2
20260510193333 83 192 4.3 8.7 0.00 0.00 0.00 51 1015.4
20260510191849 83 219 1.7 5.2 0.00 0.00 0.00 54 1015.5
20260510190354 83 50 0.9 7.0 0.00 0.00 0.00 60 1015.6
20260510184850 82 247 4.3 7.0 0.00 0.00 0.00 55 1016.1
20260510183327 83 284 1.7 5.2 0.00 0.00 0.00 59 1016.0
20260510181842 82 246 3.5 7.0 0.00 0.00 0.00 55 1016.2
20260510180352 81 51 1.7 3.5 0.00 0.00 0.00 65 1016.3
20260510174912 81 215 3.5 6.1 0.00 0.00 0.00 60 1016.4
20260510173337 81 218 1.7 5.2 0.00 0.00 0.00 67 1016.3
20260510171826 80 76 1.7 3.5 0.00 0.00 0.00 70 1016.4
20260510170325 80 72 1.7 3.5 0.00 0.00 0.00 71 1016.3
20260510164836 79 274 0.9 5.2 0.00 0.00 0.00 69 1016.5
20260510163349 79 250 1.7 4.3 0.00 0.00 0.00 71 1016.6
20260510161845 78 58 0.9 4.3 0.00 0.00 0.00 74 1016.7
20260510160326 77 227 1.7 4.3 0.00 0.00 0.00 72 1016.7
20260510154827 77 104 1.7 7.0 0.00 0.00 0.00 76 1017.2
20260510153328 76 242 3.5 4.3 0.00 0.00 0.00 72 1017.1
20260510151846 76 13 3.5 7.0 0.00 0.00 0.00 74 1016.8
20260510150339 76 25 2.6 5.2 0.00 0.00 0.00 79 1016.9
20260510144835 75 344 1.7 4.3 0.00 0.00 0.00 79 1016.9
20260510143348 75 360 0.9 2.6 0.00 0.00 0.00 81 1016.7
20260510141839 74 42 2.6 3.5 0.00 0.00 0.00 83 1016.8
20260510140413 73 302 0.9 4.3 0.00 0.00 0.00 83 1016.9
20260510134829 72 5 1.7 3.5 0.00 0.00 0.00 84 1016.8
20260510133349 71 308 0.9 3.5 0.00 0.00 0.00 84 1016.6
20260510131834 70 279 1.7 2.6 0.00 0.00 0.00 85 1016.6
20260510130331 69 307 0.9 3.5 0.00 0.00 0.00 87 1016.3
20260510124837 68 340 1.7 3.5 0.00 0.00 0.00 89 1016.3
20260510123349 67 284 0.9 3.5 0.00 0.00 0.00 90 1016.2
20260510121831 65 198 0.9 1.7 0.00 0.00 0.00 91 1016.0
20260510120337 64 194 0.0 1.7 0.00 0.00 0.00 91 1016.1
20260510114829 63 173 0.0 0.9 0.00 0.00 0.00 91 1015.8
20260510113349 63 173 0.0 0.0 0.00 0.00 0.00 90 1015.6
20260510111831 62 173 0.9 2.6 0.00 0.00 0.00 90 1015.5
20260510110352 62 172 0.0 0.0 0.00 0.00 0.00 90 1015.3
20260510104830 62 172 0.0 0.0 0.00 0.00 0.00 89 1015.2
20260510103349 62 172 0.0 0.0 0.00 0.00 0.00 89 1014.9
20260510101846 62 172 0.0 0.0 0.00 0.00 0.00 90 1014.6
20260510100332 62 172 0.0 0.9 0.00 0.00 0.00 90 1014.6
20260510094831 62 172 0.0 0.9 0.00 0.00 0.00 89 1014.4
20260510093348 62 172 0.0 1.7 0.00 0.00 0.00 90 1014.2
20260510091847 62 171 0.0 1.7 0.00 0.00 0.00 89 1014.1
20260510090407 62 169 0.0 0.0 0.00 0.00 0.00 89 1013.8
20260510084843 62 169 0.0 1.7 0.00 0.00 0.00 89 1013.6
20260510083346 62 169 0.0 0.0 0.00 0.00 0.00 89 1013.6
20260510081846 62 169 0.0 0.9 0.00 0.00 0.00 89 1013.6
20260510080334 62 169 0.0 0.0 0.00 0.00 0.00 88 1013.5
20260510074853 62 169 0.0 0.9 0.00 0.00 0.00 88 1013.4
20260510073346 62 168 0.0 0.9 0.00 0.00 0.00 88 1013.4
20260510071856 62 168 0.0 0.0 0.00 0.00 0.00 88 1013.4
20260510070330 62 168 0.0 0.0 0.00 0.00 0.00 88 1013.5
20260510064844 62 168 0.0 0.0 0.00 0.00 0.00 88 1013.5
20260510063335 62 168 0.0 0.0 0.00 0.00 0.00 87 1013.4
20260510061835 62 168 0.0 0.0 0.00 0.00 0.00 87 1013.3
20260510060357 62 168 0.0 0.0 0.00 0.00 0.00 87 1013.3
20260510054847 63 168 0.0 0.0 0.00 0.00 0.00 87 1013.5
20260510044848 63 168 0.0 0.0 0.00 0.00 0.00 86 1014.1
20260510043328 63 168 0.0 0.0 0.00 0.00 0.00 86 1014.2
20260510041844 63 168 0.0 0.0 0.00 0.00 0.00 85 1014.0
20260510040336 64 168 0.0 0.0 0.00 0.00 0.00 85 1014.0
20260510034847 64 168 0.0 0.0 0.00 0.00 0.00 86 1013.9
20260510033335 64 168 0.0 0.0 0.00 0.00 0.00 86 1013.8
20260510031846 64 168 0.0 0.0 0.00 0.00 0.00 85 1013.6
20260510030337 64 168 0.0 0.0 0.00 0.00 0.00 85 1013.6
20260510024850 65 168 0.0 0.0 0.00 0.00 0.00 84 1013.5
20260510021834 65 168 0.0 0.0 0.00 0.00 0.00 83 1013.4
20260510020332 66 168 0.0 0.0 0.00 0.00 0.00 83 1013.4
20260510014829 66 168 0.0 0.0 0.00 0.00 0.00 83 1013.2
20260510013342 66 168 0.0 0.0 0.00 0.00 0.00 81 1012.8
20260510011830 67 168 0.0 0.0 0.00 0.00 0.00 80 1012.6
20260510010349 68 168 0.0 0.0 0.00 0.00 0.00 80 1012.8
20260510004905 69 168 0.0 0.0 0.00 0.00 0.00 79 1012.5
20260510003328 69 168 0.0 0.0 0.00 0.00 0.00 79 1012.4
20260510001848 70 168 0.0 0.0 0.00 0.00 0.00 78 1012.5
20260510000326 71 168 0.0 0.0 0.00 0.00 0.00 78 1012.5
20260509234824 72 168 0.0 0.0 0.00 0.00 0.00 78 1012.4
20260509233326 72 169 0.0 0.9 0.00 0.00 0.00 78 1012.0
20260509231842 72 168 0.9 2.6 0.00 0.00 0.00 78 1012.0
20260509230346 73 165 1.7 2.6 0.00 0.00 0.00 78 1011.9
20260509224846 73 161 0.9 2.6 0.00 0.00 0.00 78 1011.6
20260509223339 73 222 1.7 4.3 0.00 0.00 0.00 77 1011.8
20260509221827 72 225 0.9 4.3 0.00 0.00 0.00 78 1011.8
20260509220348 73 232 2.6 6.1 0.00 0.00 0.00 77 1011.8
20260509214832 73 211 0.9 3.5 0.00 0.00 0.00 77 1011.9
20260509213331 72 235 1.7 7.0 0.00 0.00 0.00 77 1011.7
20260509211832 72 234 2.6 7.0 0.00 0.00 0.00 77 1011.7